Location: Colle Pacifico
(43.5333°N, 13.3167°E)
Time: 18:22:30
(UTC+00:00)

ARIANE 5 R/B - Pass Details

Date: 07 June 2020
Orbit: 748 x 796 km, 98.6° (Epoch: 04 July)

Event Time Altitude Azimuth Distance (km) Brightness Sun altitude
Rises 01:13:41 0° 22° (NNE) 3,216 7.4 -17.5°
Reaches altitude 10° 01:16:13 10° 32° (NNE) 2,282 6.3 -17.2°
Maximum altitude 01:20:44 33° 97° (E) 1,236 3.8 -16.8°
Enters shadow 01:25:03 11° 160° (SSE) 2,204 4.5 -16.4°
